Location: Lombard
(41.8800°N, 88.0080°W)
Time: 13:22:52
(UTC-06:00)

Transit 4A - Pass Details

Date: 30 November 2023
Orbit: 870 x 973 km, 66.8° (Epoch: 03 March)

Event Time Altitude Azimuth Distance (km) Brightness Sun altitude
Rises 23:31:51 0° 281° (WNW) 3,664 - -69.8°
Reaches altitude 10° 23:36:54 10° 316° (NW) 2,708 - -69.9°
Maximum altitude 23:38:38 11° 332° (NNW) 2,622 - -69.9°
Drops below altitude 10° 23:40:22 10° 348° (NNW) 2,696 - -69.9°
Sets 23:45:21 0° 23° (NNE) 3,620 - -69.9°
